Location: Santa Cristina
(46.5667°N, 11.7167°E)
Time: 04:47:26
(UTC+00:00)

Cosmos 2366 rocket - Pass Details

Date: 21 April 2021
Orbit: 954 x 998 km, 82.9° (Epoch: 10 May)

Event Time Altitude Azimuth Distance (km) Brightness Sun altitude
Rises 01:06:17 0° 347° (NNW) 3,647 7.6 -26.2°
Reaches altitude 10° 01:08:50 10° 343° (NNW) 2,695 6.8 -25.9°
Maximum altitude 01:14:47 54° 268° (W) 1,151 4.1 -25.4°
Enters shadow 01:15:08 53° 256° (WSW) 1,160 4.1 -25.4°
